Temp
7 7 7 7 7 7 7 7 7 7 7 7 7 7 7 7 7 6 6 6 6 6 6 6 6 6 6 7 6 6 5 7 7 8 8 7 7 6 6 7 7 6 5 6 5
6 7 7 7 7 7 7 7 7 7 6 7 7 7 7 7 7 6 6 6 6 6 6 6 6 6 6 6 6 6 6 7 7 8 7 7 7 6 5 5 6 5 5 4 5
6 6 6 7 7 7 7 6 7 7 6 7 7 7 7 7 6 6 6 6 6 6 6 6 6 5 6 6 6 7 7 7 7 7 6 6 7 7 6 6 6 6 5 3 4
6 6 6 6 6 7 6 6 6 6 6 6 7 7 7 6 6 5 6 6 6 6 6 6 5 5 5 6 7 7 7 7 7 6 6 7 6 7 5 6 6 6 5 4 4
6 6 6 6 6 6 6 6 6 6 6 6 6 6 6 6 6 6 6 6 6 6 5 5 5 5 6 7 7 7 8 7 7 8 6 6 6 6 6 5 5 5 5 5 4
5 5 5 6 6 6 6 6 6 6 6 6 6 6 6 6 6 5 5 6 6 6 5 5 6 6 6 7 7 8 8 6 8 6 6 7 7 7 6 6 5 5 5 4 4
4 5 5 5 6 6 6 6 6 6 6 6 6 6 6 5 6 5 5 5 6 5 5 5 5 6 6 7 7 8 7 8 7 7 8 7 7 6 6 6 5 4 4 5 4
4 4 4 5 5 5 6 6 6 6 6 6 6 6 6 5 5 6 6 6 6 6 6 5 5 5 6 6 7 8 8 8 8 7 8 7 7 6 6 6 5 5 5 4 4
4 4 4 4 5 5 5 6 5 5 5 5 5 6 6 6 6 6 6 6 6 6 5 5 6 5 6 7 7 8 8 8 8 8 8 8 7 7 6 6 5 5 5 5 4
4 3 4 4 5 5 5 5 5 5 5 5 5 6 6 6 6 5 6 6 5 6 6 6 6 6 6 6 7 8 8 8 8 8 8 8 8 7 6 6 6 5 5 5 5
4 3 3 4 4 4 5 5 4 5 5 5 5 5 6 5 5 6 6 6 6 6 6 6 6 7 7 6 7 8 8 8 9 9 9 9 8 8 7 7 7 6 5 5 5
3 3 3 3 4 4 4 4 5 6 6 5 6 5 6 5 5 6 6 6 6 6 6 5 6 6 6 7 7 8 8 8 9 9 9 8 9 8 7 7 7 6 6 6 5
3 3 3 3 3 3 4 3 3 3 3 5 6 6 6 6 6 6 6 6 6 6 6 6 6 6 7 7 7 8 8 9 9 9 9 9 9 8 8 8 7 7 7 7 5
2 2 2 3 3 3 2 3 3 3 3 6 6 6 5 5 6 6 6 7 6 6 6 6 7 7 7 7 8 8 8 8 8 8 9 8 8 8 8 8 8 7 7 6 6
2 2 2 2 3 2 3 3 3 2 1 6 6 6 6 6 7 6 6 7 7 6 6 6 6 7 6 7 8 8 8 8 9 8 8 8 8 8 7 8 8 8 7 7 7
2 2 2 2 2 1 2 2 2 2 2 6 6 5 6 6 6 6 6 7 6 6 6 6 6 6 7 7 8 8 8 8 8 8 5 9 8 7 8 8 8 7 7 7 7
2 2 2 1 2 0 1 2 1 1 6 7 6 6 6 6 6 6 7 7 7 6 7 7 7 7 7 8 8 8 8 7 5 3 2 6 7 8 9 8 8 8 8 7 6
1 2 2 1 1 0 1 1 1 4 6 7 7 6 6 6 6 6 7 7 7 7 7 6 7 6 6 7 8 8 8 7 3 1 4 5 6 8 8 8 8 8 7 6 6
1 1 2 1 -0 1 1 -0 1 4 6 7 7 7 6 6 7 7 7 7 7 7 7 6 6 6 6 7 7 8 7 8 7 4 2 7 8 8 8 8 7 7 7 6 6
0 1 2 0 -1 0 0 -0 2 6 6 7 6 7 7 7 7 7 7 7 7 7 7 6 6 5 5 6 7 7 8 8 8 3 4 7 8 7 7 7 7 7 6 5 5
-2 -0 2 -1 -1 -0 -0 -1 3 6 6 5 7 7 7 7 7 7 7 7 8 7 7 7 7 6 5 5 7 7 7 7 7 7 2 0 6 8 8 8 7 6 6 6 6
-2 -2 -0 -1 -2 -0 1 1 4 6 6 5 6 7 7 7 7 7 7 7 7 7 8 5 6 6 6 7 7 7 7 6 7 7 7 6 7 7 7 8 7 7 6 6 5
-4 -4 -3 -2 -1 0 -0 2 4 5 5 5 6 7 7 7 6 8 8 7 7 7 7 7 7 7 7 7 7 7 7 8 7 7 7 3 6 7 7 7 7 7 6 6 5
-3 -4 -3 -1 -0 1 1 2 3 5 5 4 5 7 7 7 7 6 8 7 7 7 7 7 6 6 6 7 7 7 7 7 7 7 7 7 7 7 7 7 7 6 6 6 5
-3 -3 -2 -1 -0 -1 0 2 3 4 4 4 5 6 6 7 7 7 7 7 6 6 6 6 6 6 6 6 6 6 6 6 7 7 7 7 7 7 7 7 6 6 5 5 5
-4 -3 -2 -1 -1 -1 -1 2 2 4 4 4 5 6 6 6 7 7 7 6 6 6 6 5 5 5 5 5 6 6 6 6 6 7 7 7 7 7 7 7 6 6 5 4 4
-3 -3 -2 -1 -1 -1 1 2 2 5 4 5 5 6 6 6 6 6 7 6 6 6 6 5 5 5 5 5 5 5 6 6 6 6 6 6 6 7 7 6 6 5 5 4 4
Height
3156 3156 3155 3154 3153 3151 3150 3148 3145 3142 3140 3137 3133 3130 3129 3127 3126 3127 3127 3126 3124 3122 3122 3125 3127 3129 3130 3131 3133 3137 3140 3137 3140 3141 3139 3137 3137 3139 3140 3144 3142 3143 3140 3143 3144
3152 3152 3151 3150 3150 3148 3146 3145 3142 3140 3138 3135 3131 3128 3127 3126 3125 3126 3126 3123 3121 3120 3121 3123 3126 3128 3130 3131 3134 3136 3136 3140 3141 3139 3138 3134 3134 3139 3141 3140 3141 3142 3141 3141 3141
3148 3148 3147 3146 3146 3145 3143 3142 3139 3137 3135 3132 3129 3127 3126 3125 3124 3125 3123 3122 3120 3120 3120 3122 3124 3128 3129 3131 3133 3136 3136 3140 3141 3135 3135 3137 3135 3134 3137 3137 3141 3141 3140 3139 3140
3143 3143 3143 3142 3142 3141 3140 3138 3136 3134 3132 3129 3127 3125 3124 3124 3126 3123 3123 3121 3119 3120 3121 3123 3124 3127 3130 3131 3131 3135 3134 3140 3136 3135 3138 3136 3136 3133 3137 3136 3139 3139 3140 3141 3141
3138 3138 3139 3138 3138 3137 3137 3135 3132 3131 3129 3126 3124 3124 3124 3123 3124 3124 3122 3121 3120 3120 3122 3123 3126 3128 3129 3131 3132 3135 3134 3138 3136 3131 3138 3137 3137 3136 3133 3134 3137 3139 3141 3143 3144
3132 3133 3133 3134 3134 3133 3133 3132 3129 3128 3126 3124 3122 3122 3122 3123 3122 3122 3122 3121 3121 3121 3123 3124 3127 3131 3131 3131 3133 3134 3134 3135 3133 3131 3135 3137 3138 3137 3137 3138 3140 3141 3143 3145 3146
3126 3128 3128 3130 3130 3129 3129 3128 3126 3125 3123 3121 3120 3121 3121 3123 3121 3123 3123 3124 3123 3123 3124 3125 3129 3129 3128 3128 3129 3131 3134 3136 3134 3134 3133 3137 3137 3137 3139 3140 3142 3144 3147 3147 3149
3120 3122 3124 3125 3126 3125 3126 3125 3124 3122 3121 3119 3119 3120 3120 3121 3122 3123 3123 3125 3125 3125 3125 3124 3126 3127 3128 3129 3130 3131 3135 3136 3137 3134 3134 3138 3139 3139 3141 3142 3143 3146 3148 3149 3153
3114 3116 3119 3121 3122 3122 3122 3121 3120 3119 3117 3117 3118 3118 3119 3120 3121 3123 3122 3124 3123 3125 3125 3125 3126 3127 3130 3129 3131 3133 3134 3135 3136 3134 3136 3137 3138 3139 3142 3144 3147 3149 3149 3150 3153
3108 3111 3113 3117 3118 3118 3119 3117 3116 3116 3115 3115 3117 3120 3120 3121 3122 3123 3123 3124 3126 3125 3125 3125 3126 3128 3130 3128 3130 3132 3134 3133 3133 3134 3137 3138 3138 3138 3141 3144 3145 3150 3153 3154 3153
3103 3105 3108 3111 3113 3114 3115 3114 3116 3114 3111 3113 3114 3116 3117 3120 3122 3123 3124 3125 3125 3126 3125 3127 3128 3128 3129 3130 3131 3134 3133 3133 3131 3133 3135 3136 3137 3137 3140 3142 3144 3146 3148 3152 3153
3096 3099 3103 3106 3108 3110 3111 3111 3109 3110 3110 3109 3110 3112 3114 3115 3119 3121 3125 3126 3125 3126 3127 3130 3128 3129 3129 3129 3130 3131 3132 3129 3130 3132 3134 3136 3136 3136 3137 3141 3141 3142 3147 3148 3150
3091 3094 3099 3103 3104 3107 3108 3109 3107 3107 3106 3107 3108 3111 3113 3116 3117 3118 3124 3125 3126 3126 3127 3128 3129 3129 3128 3128 3128 3132 3131 3128 3130 3132 3133 3134 3135 3137 3139 3143 3142 3144 3146 3146 3145
3084 3088 3094 3097 3103 3103 3103 3104 3105 3106 3106 3104 3104 3107 3111 3113 3115 3117 3121 3125 3125 3125 3127 3127 3126 3128 3128 3127 3127 3129 3130 3130 3131 3133 3134 3134 3136 3137 3139 3142 3143 3140 3141 3140 3143
3079 3083 3088 3090 3097 3099 3102 3101 3102 3107 3107 3101 3101 3105 3108 3111 3113 3116 3118 3122 3122 3125 3126 3126 3125 3127 3126 3127 3127 3128 3128 3129 3130 3131 3134 3134 3135 3133 3139 3137 3138 3142 3142 3139 3139
3073 3077 3081 3086 3094 3096 3098 3101 3103 3107 3101 3097 3098 3101 3106 3108 3110 3114 3117 3120 3120 3123 3123 3124 3125 3126 3125 3125 3127 3127 3127 3128 3128 3128 3130 3129 3129 3127 3128 3128 3131 3135 3137 3138 3136
3065 3070 3076 3081 3089 3087 3093 3098 3104 3099 3096 3096 3096 3100 3103 3106 3108 3111 3114 3116 3119 3121 3121 3122 3123 3126 3126 3126 3126 3127 3127 3127 3129 3130 3131 3128 3128 3123 3123 3125 3126 3127 3130 3134 3132
3055 3062 3069 3076 3080 3085 3090 3094 3092 3089 3090 3093 3094 3098 3101 3104 3107 3108 3111 3113 3116 3117 3118 3121 3123 3124 3126 3127 3127 3126 3126 3126 3131 3134 3130 3128 3127 3120 3119 3120 3124 3127 3130 3129 3129
3046 3051 3058 3071 3074 3080 3085 3083 3078 3083 3087 3089 3093 3095 3098 3101 3105 3107 3108 3110 3112 3114 3117 3117 3120 3121 3123 3122 3127 3125 3124 3123 3123 3127 3129 3126 3120 3117 3115 3118 3120 3120 3122 3123 3125
3034 3039 3050 3065 3067 3073 3076 3068 3072 3080 3083 3088 3091 3092 3095 3098 3102 3102 3105 3107 3108 3110 3113 3114 3117 3117 3123 3121 3120 3122 3123 3123 3120 3126 3126 3120 3119 3117 3118 3118 3117 3117 3118 3119 3122
3026 3031 3043 3056 3061 3064 3055 3058 3068 3075 3079 3084 3085 3088 3091 3094 3096 3099 3101 3103 3103 3107 3110 3112 3115 3114 3120 3119 3119 3120 3118 3119 3120 3120 3120 3124 3120 3118 3118 3117 3115 3114 3114 3116 3117
3011 3021 3033 3044 3049 3048 3045 3053 3064 3070 3076 3078 3082 3085 3087 3090 3095 3095 3096 3099 3100 3102 3103 3112 3110 3110 3113 3115 3115 3116 3116 3116 3116 3118 3117 3117 3117 3117 3116 3116 3115 3115 3114 3114 3114
3001 3015 3026 3037 3036 3036 3042 3052 3059 3064 3068 3073 3077 3079 3083 3087 3090 3091 3093 3094 3098 3101 3103 3105 3106 3108 3111 3113 3113 3112 3112 3113 3112 3112 3112 3114 3114 3113 3113 3113 3112 3112 3113 3113 3112
2992 3006 3016 3021 3027 3030 3035 3044 3051 3059 3063 3068 3074 3077 3079 3083 3084 3087 3088 3091 3092 3096 3099 3102 3103 3105 3106 3108 3110 3109 3107 3108 3109 3108 3110 3109 3110 3109 3109 3109 3109 3109 3109 3109 3108
2978 2986 2996 2999 3007 3019 3031 3039 3045 3052 3058 3064 3069 3072 3075 3079 3082 3085 3084 3087 3089 3092 3095 3097 3098 3101 3103 3105 3105 3104 3105 3105 3105 3105 3105 3107 3107 3107 3106 3105 3104 3104 3105 3106 3106
2965 2979 2992 2994 3003 3015 3021 3027 3037 3047 3054 3060 3065 3068 3072 3074 3077 3079 3081 3084 3086 3090 3091 3092 3094 3097 3099 3100 3100 3100 3101 3100 3101 3101 3101 3102 3103 3105 3103 3102 3102 3101 3101 3101 3102
2956 2976 2987 2991 2997 3007 3005 3019 3030 3044 3050 3057 3061 3066 3070 3072 3075 3077 3079 3080 3083 3087 3088 3091 3093 3094 3096 3097 3097 3097 3096 3096 3096 3098 3099 3099 3099 3100 3098 3096 3095 3096 3096 3096 3096
Wind_Speed
22 21 20 21 23 24 24 23 24 25 26 27 25 21 14 10 10 13 14 17 12 11 10 12 10 10 8 12 11 5 16 19 21 16 11 10 2 7 1 8 7 9 12 11 13
22 22 20 20 22 23 23 22 24 24 24 26 21 17 13 10 10 11 12 11 10 5 3 7 8 9 10 7 8 9 16 18 16 20 16 4 15 9 1 7 8 10 13 8 3
23 22 21 20 21 22 22 22 23 23 24 24 18 15 13 9 9 8 13 12 8 2 6 8 11 1 3 1 4 8 15 13 14 9 3 7 5 15 15 11 9 7 11 10 12
24 23 22 19 20 21 21 21 22 22 24 21 16 13 11 6 4 9 14 8 4 2 5 9 9 2 8 7 3 13 16 16 13 5 13 11 6 4 8 10 3 3 15 12 14
25 23 22 19 19 20 21 21 21 21 23 18 14 12 9 5 5 10 10 6 3 4 7 11 7 3 5 4 7 10 12 7 10 14 13 10 6 3 2 16 9 9 15 12 14
25 23 21 20 18 19 20 21 20 21 21 15 11 10 5 1 6 4 6 4 1 5 11 14 7 6 15 17 13 7 8 11 7 7 5 3 9 6 6 17 13 11 15 12 13
27 23 21 20 18 18 19 20 19 21 18 12 9 7 2 4 6 7 6 4 6 7 16 8 5 8 7 8 4 7 4 1 6 7 5 3 9 9 8 9 12 16 8 11 10
28 24 22 20 17 18 18 19 18 19 14 9 7 4 3 4 4 2 4 1 2 2 9 1 10 12 9 5 3 2 6 5 8 6 3 2 10 13 12 7 12 10 9 14 10
29 25 22 20 17 17 17 17 17 15 12 8 6 5 6 6 7 3 4 3 8 5 8 7 5 12 5 5 5 8 7 5 10 9 8 8 14 11 14 13 14 8 10 16 12
29 26 21 20 18 17 16 15 15 13 10 7 6 6 3 4 4 1 2 3 4 6 1 2 2 7 4 5 7 6 6 16 12 14 11 11 14 16 18 19 14 18 15 16 13
30 26 23 21 19 17 14 13 13 14 13 8 10 8 15 7 9 7 2 4 1 2 5 5 6 3 2 9 10 12 9 7 15 16 10 13 18 17 18 14 8 20 18 15 15
28 27 24 22 20 16 13 10 18 18 13 13 14 21 20 15 13 11 9 1 3 4 1 8 5 3 7 9 11 13 14 21 18 13 10 13 15 13 19 12 13 16 17 8 17
27 27 25 23 21 15 13 8 16 16 17 13 17 23 18 12 14 11 16 5 7 4 4 5 10 6 8 12 14 9 3 9 9 3 9 10 8 17 18 15 16 17 16 13 17
28 28 25 25 21 15 12 12 14 13 9 10 14 22 22 8 12 18 18 8 12 9 11 6 9 12 12 12 11 17 6 4 8 3 4 7 3 16 21 18 19 21 17 14 19
31 29 27 28 20 16 15 16 14 8 3 1 13 9 23 18 10 19 6 22 11 11 12 5 10 9 19 8 3 6 8 6 13 15 11 9 5 19 19 22 16 23 22 20 22
35 31 32 28 20 16 17 17 16 7 8 8 14 18 16 14 13 14 15 14 8 7 11 14 13 11 11 3 8 5 4 5 11 10 6 13 11 10 24 22 22 27 25 25 26
38 34 33 30 23 24 23 18 13 8 8 12 20 16 20 19 15 19 25 22 14 13 12 6 11 12 8 8 6 8 9 2 3 5 3 18 9 22 21 20 28 22 27 28 35
41 36 35 32 30 26 27 25 14 8 16 10 20 18 17 19 17 18 19 23 25 16 8 13 7 6 9 18 11 8 13 6 5 1 7 14 7 8 13 13 19 15 21 27 34
44 42 42 34 33 29 33 33 22 18 22 12 20 20 19 19 19 21 23 25 25 26 22 13 12 21 12 7 6 8 7 12 5 5 2 10 12 3 8 14 14 17 23 29 32
49 48 42 35 37 35 41 38 31 20 13 16 17 20 22 23 22 23 21 23 24 28 24 17 3 9 20 8 10 14 10 2 2 5 4 5 6 9 10 9 6 17 20 25 26
49 48 43 39 40 42 53 42 36 29 16 11 19 20 23 22 21 20 21 20 23 19 13 16 16 5 19 19 15 15 11 10 8 3 5 1 2 3 1 6 1 11 16 20 22
55 49 43 45 48 51 58 49 40 32 22 14 14 25 24 22 21 22 22 11 17 20 23 17 10 13 18 11 9 11 6 7 13 6 3 3 8 16 14 4 6 2 12 18 21
55 48 31 43 53 57 52 50 42 36 25 12 23 20 24 20 25 24 18 14 16 21 14 15 5 8 11 7 11 14 14 17 11 16 14 5 5 6 17 15 12 7 5 13 18
54 46 44 44 55 57 51 53 50 41 23 16 20 23 19 14 18 17 22 16 19 19 17 17 11 10 10 11 9 9 10 13 14 11 11 15 18 22 12 18 14 8 5 4 15
56 56 48 57 61 57 52 50 50 44 34 21 21 29 21 16 21 17 18 15 13 10 11 13 17 16 17 17 15 10 11 9 16 15 18 19 16 12 14 2 7 7 6 6 9
57 54 50 33 55 53 45 55 52 45 30 26 20 25 23 18 20 18 17 14 17 14 14 14 15 15 15 18 19 16 14 19 16 13 16 14 18 13 10 14 10 10 9 7 10
59 55 48 50 28 55 60 58 48 43 27 25 20 21 23 22 20 15 19 21 12 12 19 19 19 18 14 15 16 18 22 22 18 20 19 18 17 15 15 15 12 11 13 13 17
Wind_Direction
286 290 294 297 301 305 309 317 319 317 320 323 327 327 326 319 312 312 314 309 306 294 281 235 228 224 233 211 169 198 263 270 296 315 322 230 122 69 300 272 255 223 197 225 212
284 288 291 296 301 303 307 315 316 317 320 321 325 324 318 318 313 312 325 335 329 310 240 196 202 220 233 199 175 208 248 275 281 324 318 219 246 162 266 221 236 230 238 177 240
280 284 288 293 298 302 306 312 314 315 318 319 321 319 312 315 309 315 344 339 334 291 192 175 178 103 232 183 180 222 254 263 302 346 317 238 197 233 232 253 248 258 154 176 178
276 280 282 288 294 300 303 309 311 315 316 317 317 312 307 306 289 327 324 333 330 257 167 169 114 102 301 275 226 263 265 265 238 60 36 33 52 187 233 232 199 91 122 139 149
270 274 279 285 292 297 301 307 309 314 314 313 315 305 303 311 264 297 330 327 300 193 142 113 99 144 239 308 309 250 249 246 255 327 138 55 44 87 335 170 165 147 127 138 130
265 268 274 281 285 292 298 304 309 311 311 309 309 299 292 2 318 25 4 18 353 174 141 118 98 311 299 296 286 244 261 257 255 116 126 3 130 102 149 158 163 158 140 153 124
260 263 267 273 281 288 295 300 308 309 306 306 298 283 254 160 295 116 78 62 48 136 132 94 269 264 241 308 25 212 239 222 156 127 47 145 141 136 136 134 167 148 150 137 117
257 258 262 269 275 283 290 299 306 307 299 295 278 254 166 188 203 143 123 188 115 103 145 57 251 248 249 300 238 247 171 193 153 183 197 40 173 154 153 133 126 136 120 114 144
253 254 258 264 268 276 284 297 303 300 286 276 252 220 205 203 153 98 40 45 7 329 222 211 239 248 214 122 182 192 252 173 192 205 224 221 157 150 153 156 145 160 144 158 183
253 249 250 257 262 268 280 292 296 285 268 252 221 196 178 156 158 120 91 109 249 315 80 218 174 173 176 174 200 260 223 222 234 203 219 229 173 171 174 185 202 174 177 180 191
253 245 243 247 253 260 273 286 280 266 250 216 191 155 135 151 220 218 258 169 15 10 79 85 137 143 208 197 261 242 225 247 255 221 225 246 194 186 205 220 219 167 170 193 234
253 244 240 243 247 253 264 269 270 279 275 227 203 169 173 179 209 176 218 137 258 259 284 232 232 173 151 290 293 237 300 284 248 199 215 165 213 198 197 215 184 179 196 216 220
253 244 237 240 243 247 257 254 259 266 282 238 219 191 191 206 199 167 205 193 233 262 285 277 242 207 235 261 260 254 248 258 164 178 206 242 220 197 190 197 210 223 247 256 214
249 242 229 234 237 237 234 219 233 253 277 253 220 209 200 169 220 169 205 227 236 243 224 232 249 200 249 263 249 258 237 247 185 209 195 251 311 180 205 199 216 235 245 232 225
251 240 223 228 227 230 226 210 207 219 320 225 221 209 198 188 196 187 232 221 231 233 222 189 197 245 277 265 131 275 219 231 201 239 253 212 246 275 250 218 234 226 226 234 243
247 239 221 223 218 217 221 205 185 186 247 173 187 196 184 207 205 200 215 194 264 190 282 248 238 259 240 248 216 242 268 238 248 287 197 257 231 227 222 233 234 219 219 224 230
240 238 222 218 205 204 200 187 190 210 191 204 185 187 199 213 225 212 216 212 208 201 238 221 230 212 245 196 210 235 272 309 338 355 239 11 227 244 249 240 217 219 224 232 234
235 234 220 212 212 200 196 187 213 227 194 178 191 188 204 204 218 225 207 209 215 210 236 218 246 262 219 231 251 236 258 248 166 174 303 336 248 281 256 230 209 226 244 229 227
229 227 219 203 210 199 196 200 210 180 193 196 185 194 211 213 216 218 226 223 222 218 236 183 223 268 249 223 271 286 280 273 127 207 81 227 250 230 171 173 206 234 219 211 226
222 223 221 200 208 201 204 211 208 178 166 204 223 202 213 213 225 212 218 225 230 226 231 223 250 288 201 292 245 241 258 228 169 143 241 263 33 139 158 188 231 209 218 217 235
211 219 213 198 206 206 211 214 210 191 192 227 243 215 219 217 204 217 218 229 227 214 210 223 237 240 217 246 261 238 249 222 236 251 170 173 103 131 166 250 262 208 222 239 263
210 211 211 199 202 211 216 211 211 206 201 240 242 227 215 232 203 216 222 237 204 219 236 219 193 159 193 252 245 247 258 255 228 231 218 231 254 280 294 330 340 323 234 259 271
200 206 199 209 208 214 219 215 213 205 195 230 229 213 219 239 208 211 224 187 187 199 179 187 199 215 253 249 249 254 269 250 272 235 221 190 244 310 311 294 294 315 262 243 266
190 190 199 203 216 217 215 213 213 204 204 206 234 213 224 252 215 242 207 200 191 201 208 208 212 218 219 251 268 290 270 254 258 239 234 241 273 285 288 284 278 289 239 283 248
187 195 196 202 206 212 217 212 212 211 207 204 225 214 214 238 210 201 222 216 197 215 234 234 230 223 230 253 272 265 276 268 258 268 245 270 273 288 299 269 252 247 240 241 250
192 192 200 206 204 201 208 210 211 202 202 203 220 211 214 232 212 227 216 221 228 233 238 225 224 237 246 253 271 279 264 270 262 265 276 294 273 279 289 303 288 262 265 252 259
186 188 204 204 207 199 207 207 203 195 193 215 201 205 213 218 215 231 224 229 216 237 228 225 226 226 238 254 272 277 265 267 272 261 262 274 290 273 267 284 287 287 277 287 290